Location: *
(33.3200°N, 8.3381°W)
Time: 16:48:31
(UTC+00:00)

Cosmos 2341 Rocket - Pass Details

Date: 09 April 2020
Orbit: 968 x 1004 km, 82.9° (Epoch: 26 May)

Event Time Altitude Azimuth Distance (km) Brightness Sun altitude
Rises 20:47:17 0° 356° (N) 3,732 7.5 -22.1°
Reaches altitude 10° 20:49:50 10° 358° (N) 2,781 6.7 -22.6°
Maximum altitude 20:56:14 73° 84° (E) 1,049 3.9 -23.7°
Enters shadow 20:58:22 44° 156° (SSE) 1,360 4.4 -24.1°
